sat.trackr.live / text

‹ back to catalog

MANDRAKE 2 ABLE

NORAD 48907 · 2021-059AE

PAYLOAD ACTIVE UNKNOWN

§ Identity

Operator
Country
US
Launch date
2021-06-30
Launch site
AFETR
Launch vehicle
Mass (kg)
RCS (m²)

External: N2YO · Heavens-Above · Gunter

§ Orbital elements

Epoch: 2026-09-20T14:56:33.293184Z

Period
92.39 min
Inclination
97.6991°
Eccentricity
0.0004549
Mean motion
15.58685675 rev/d
Perigee alt
388.4 km
Apogee alt
394.5 km
Semi-major
6,769.6 km
B*
2.3115e-4
RAAN
100.9562°
Arg perigee
17.1078°
Mean anomaly
343.0329°
Rev number
29,197

§ Raw data

MANDRAKE 2 ABLE1 48907U 21059AE  26263.62260756  .00017670  00000+0  23115-3 0  99932 48907  97.6991 100.9562 0004549  17.1078 343.0329 15.58685675291978

JSON: /api/v1/satellites/48907 · /tle

For live sub-satellite position, see the globe view (requires WebGL).

§ Visibility from observer

Set your observer location to see the next 7 days of passes ≥ 10°. The values pass through the URL so the page stays shareable.

No JS? Fill the form by hand. The geolocation button needs JavaScript.

§ Radio — SatNOGS DB

ModeDescriptionDownlinkUplink
FSK Mode U - Downlink 400.498 MHz

1 transmitter · refreshed weekly from db.satnogs.org